Volver al catálogo

USA 452

ActivoMilitarVLEO
NORAD 62351·PAYLOAD·🇺🇸 United States

Lanzado Dec 17, 2024 desde Vandenberg Space Force Base

Loading…

Próximos Pases (próximas 24 horas)

TLE

ObsoletoSource: Mike McCants

Época: Aug 14, 2026, 20:55 UTC

1 62351U 24243M   26226.87195153 0.00000000  00000-0  00000-0 0    02
2 62351  70.0190 134.7328 0003000  82.4103 277.5896 14.96713406    00

Sigue USA 452 en tiempo real con AllMySat

Download on the App Store